Location: Bourg-d�Oueil
(42.8588°N, 0.4991°E)
Time: 20:32:03
(UTC+00:00)

SPOT 5 - Pass Details

Date: 16 June 2021
Orbit: 622 x 815 km, 98.2° (Epoch: 23 July)

Event Time Altitude Azimuth Distance (km) Brightness Sun altitude
Exits shadow 22:32:22 19° 220° (SW) 1,811 4.7 -20.8°
Maximum altitude 22:35:01 28° 264° (W) 1,412 4.5 -21.0°
Drops below altitude 10° 22:39:20 10° 324° (NW) 2,273 6.5 -21.3°
Sets 22:41:53 0° 336° (NNW) 3,167 7.7 -21.4°
